Location: Forst
(46.9333°N, 15.4333°E)
Time: 21:08:30
(UTC+00:00)

N. Korean satellite - Pass Details

Date: 28 September 2021
Orbit: 450 x 495 km, 97.3° (Epoch: 25 October)

Event Time Altitude Azimuth Distance (km) Brightness Sun altitude
Rises 03:40:34 0° 23° (NNE) 2,538 10.7 -13.1°
Reaches altitude 10° 03:42:50 10° 35° (NE) 1,662 10.0 -12.8°
Maximum altitude 03:45:57 28° 96° (E) 945 8.9 -12.2°
Drops below altitude 10° 03:49:05 10° 156° (SSE) 1,670 9.5 -11.7°
Sets 03:51:22 0° 169° (SSE) 2,552 10.3 -11.3°
